Tracking 30995 objects as of 5-Jul-2025
HD Live streaming from Space Station
objects crossing your sky now

TITAN 34D R/B(2)

Track TITAN 34D R/B(2) now!


NORAD ID: 19983
Int'l Code: 1989-035C
Perigee: 31,585.0 km
Apogee: 40,477.4 km
Inclination: 8.1 °
Period: 1,448.2 minutes
Semi major axis: 42402 km
RCS: Unknown
Launch date: May 10, 1989
Source: United States (US)
Launch site: AIR FORCE EASTERN TEST RANGE (AFETR)

Note: This is a ROCKET BODY
Your satellite tracking list
NAVSTAR 17 (USA 49)
Track 1 satellite(s)




NASA's NSSDC Master Catalog

Two Line Element Set (TLE):
1 19983U 89035C   25185.22458122 -.00000102  00000-0  00000-0 0  9996
2 19983   8.0653   4.8573 1048577  50.8723 318.0519  0.99430713 22038
Source of the keplerian elements: McCants